Regional Weather Roundup
Issued by NWS

Home | Current Version | Previous Version | Text Only | Print | Product List | Glossary Off
Versions: 1 2 3 4 5 6 7 8 9 10 11 12 13 14 15 16 17 18 19 20 21 22 23 24 25 26 27 28 29 30 31 32 33 34 35 36 37 38 39 40 41 42 43 44 45 46 47 48 49 50

876
ASUS43 KDMX 251308
RWRIA

WEATHER ROUNDUP FOR IOWA
NATIONAL WEATHER SERVICE DES MOINES IA
800 AM CDT WED MAY 25 2016

NOTE: "FAIR" INDICATES FEW OR NO CLOUDS BELOW 12,000 FEET WITH NO
SIGNIFICANT WEATHER AND/OR OBSTRUCTIONS TO VISIBILITY.

* - THESE STATIONS ARE NOT NWS STATIONS...THUS NOT UNDER NWS
QUALITY CONTROL.  THEY ALSO DO NOT REPORT WEATHER SUCH
AS PRECIPITATION OR FOG.

IAZ001>003-012>014-020>022-031>034-043>046-251400-
   NORTHWEST IOWA

CITY           SKY/WX    TMP DP  RH WIND       PRES   REMARKS
CARROLL *      CLOUDY    64  64 100 SE10      29.89R FOG
CHEROKEE *     CLOUDY    64  63  94 S3        29.87R
DENISON *      MOSUNNY   64  63  94 SE6       29.87R
LE MARS *      CLOUDY    66  61  82 SE12      29.84F
ORANGE CITY *  LGT RAIN  64  63  94 CALM      29.84S
SHELDON *      MOSUNNY   64  63  94 SE14      29.83R
SIOUX CITY     CLOUDY    66  60  81 VRB3      29.85R
SPENCER        CLOUDY    65  61  87 E12       29.86F
STORM LAKE *   SUNNY     64  61  88 SE7G16    29.88S
$$

IAZ055>058-069>071-079>083-090>094-251400-
   SOUTHWEST IOWA

CITY           SKY/WX    TMP DP  RH WIND       PRES   REMARKS
ATLANTIC *     CLOUDY    66  64  94 SE10G16   29.89R
AUDUBON *      DRIZZLE   64  61  88 S3        29.91R
CLARINDA *       N/A     66  64  94 MISG      29.93R
COUNCIL BLFS * PTSUNNY   64  63  94 CALM      29.90R
CRESTON *      CLOUDY    66  64  94 S7        29.94R
HARLAN  *        N/A    N/A N/A N/A MISG        N/A
LAMONI         PTSUNNY   65  63  93 CALM      29.91R
RED OAK *      SUNNY     68  61  77 S6G13     29.90R
SHENANDOAH *   MOSUNNY   66  63  88 S5        29.91R
$$

IAZ047>049-059>061-072>074-084-251400-
   CENTRAL IOWA

CITY           SKY/WX    TMP DP  RH WIND       PRES   REMARKS
AMES           CLOUDY    65  64  97 CALM      29.86F
ANKENY *       PTSUNNY   66  66 100 SE8G17    29.88R
BOONE *        CLOUDY    64  64 100 CALM      29.86F FOG
CHARITON *     SUNNY     66  64  94 S14       29.91R
DES MOINES     CLOUDY    66  63  90 S7        29.91R
GRINNELL*      CLOUDY    63  63 100 E10       29.90F FOG
KNOXVILLE *    CLOUDY    64  63  94 SE8       29.88R FOG
MARSHALLTOWN   CLOUDY    65  64  97 SE8       29.89S
NEWTON *       CLOUDY    64  64 100 E18       29.85F
PERRY *        PTSUNNY   66  64  94 CALM      29.87S
$$

IAZ004>006-015-016-023>025-035-036-251400-
   NORTH CENTRAL IOWA

CITY           SKY/WX    TMP DP  RH WIND       PRES   REMARKS
ALGONA *       LGT RAIN  66  64  94 S6        29.90F
CLARION *      CLOUDY    64  64 100 SE8       29.90F
ESTHERVILLE    LGT RAIN  64  63  96 S6        29.90R FOG
FORT DODGE *   CLOUDY    64  61  88 E3        29.88R
MASON CITY     CLOUDY    64  64 100 S7        29.94F FOG
FOREST CITY *  LGT RAIN  63  63 100 S7        29.92F
WEBSTER CITY * DRIZZLE   63  63 100 E6G13     29.87R
IOWA FALLS *   PTSUNNY   66  64  94 W5        29.89F FOG
$$

IAZ007>011-017>019-026>030-037>042-050>054-066-251400-
   NORTHEAST IOWA

CITY           SKY/WX    TMP DP  RH WIND       PRES   REMARKS
CEDAR RAPIDS   CLOUDY    65  64  97 S8        29.94R
CHARLES CITY * MOSUNNY   64  64 100 S8        29.95F
CLINTON *      CLOUDY    68  64  87 SE13      29.96F
DECORAH *      SUNNY     64  64 100 VRB5      29.95S
DUBUQUE        CLOUDY    66  63  90 S12       29.97S
MONTICELLO *   SUNNY     66  63  88 SE7       29.95S
OELWEIN *      PTSUNNY   64  64 100 CALM      29.97R
WATERLOO       LGT RAIN  65  62  90 CALM      29.95R FOG
$$

IAZ064-065-067-068-078-251400-
   EAST CENTRAL IOWA

CITY           SKY/WX    TMP DP  RH WIND       PRES   REMARKS
DAVENPORT      CLOUDY    69  62  78 SE12      29.96F
IOWA CITY      LGT RAIN  65  63  93 S6        29.96R
MT. PLEASANT * CLOUDY    68  68 100 S9        29.94F
MUSCATINE *    PTSUNNY   68  63  83 S10       29.96R
QUAD CITIES    PTSUNNY   70  62  76 S9        29.95F
$$

IAZ062-063-075>077-085>089-095>099-251400-
   SOUTHEAST IOWA

CITY           SKY/WX    TMP DP  RH WIND       PRES   REMARKS
BURLINGTON     CLOUDY    64  63  96 S14       29.96R
FAIRFIELD *      N/A    N/A N/A N/A MISG        N/A
FORT MADISON * MOSUNNY   66  63  88 S9        29.96F
KEOKUK *       CLOUDY    68  63  83 S7        29.94F
OSKALOOSA *    CLOUDY    64  63  94 E12       29.89F
OTTUMWA        CLOUDY    66  63  90 SE12      29.89F
WASHINGTON *   SUNNY     66  66 100 S10       29.95F
$$

ABBREVIATIONS USED IN REMARKS
   TC - TEMPERATURES IN CELSIUS
  WCI - WIND CHILL INDEX
   HX - HEAT INDEX
  VSB - VISIBILITY
$$





USA.gov is the U.S. government's official web portal to all federal, state and local government web resources and services.